This demonstration page uses our WeatherBlox Daily Observations layout. Learn more.

Left ArrowRight Arrow

Hourly Observations for September 10, 2015

Temp ( °F °C ) Dew Point ( °F °C ) Humidity (%) Winds ( mph kmh ) Pressure ( in mb ) Visibility ( mi km ) Precip ( " mm )
12:15 am 00:15 Clear 77 25 73 23 89 89 SSW 8 13 29.85 1011 10 16 0.00 0.00
12:35 am 00:35 Clear 77 25 73 23 89 89 SW 7 11 29.85 1011 10 16 0.00 0.00
12:55 am 00:55 Clear 77 25 73 23 89 89 SSW 6 9 29.85 1011 10 16 0.00 0.00
1:15 am 01:15 Clear 77 25 73 23 89 89 SW 8 13 29.85 1011 10 16 0.00 0.00
1:35 am 01:35 Clear 77 25 73 23 89 89 SSW 6 9 29.85 1011 10 16 0.00 0.00
1:55 am 01:55 Clear 75 24 73 23 94 94 W 3 6 29.85 1011 10 16 0.00 0.00
2:15 am 02:15 Clear 75 24 73 23 94 94 Calm 29.83 1010 10 16 0.00 0.00
2:35 am 02:35 Clear 77 25 73 23 89 89 Calm 29.83 1010 10 16 0.00 0.00
2:55 am 02:55 Clear 77 25 73 23 89 89 SSW 5 7 29.83 1010 10 16 0.00 0.00
3:15 am 03:15 Partly Cloudy 75 24 73 23 94 94 Calm 29.83 1010 10 16 0.00 0.00
3:35 am 03:35 Mostly Cloudy 75 24 73 23 94 94 SW 5 7 29.83 1010 10 16 0.00 0.00
3:55 am 03:55 Cloudy 75 24 73 23 94 94 WSW 8 13 29.85 1011 10 16 0.00 0.00
4:15 am 04:15 Cloudy with Heavy Rain 75 24 72 22 89 89 W 7 11 29.85 1011 7 11 0.02 0.51
4:35 am 04:35 Cloudy with Rain 73 23 72 22 94 94 W 7 11 29.83 1010 7 11 0.13 3.30
4:55 am 04:55 Mostly Cloudy with Rain 72 22 72 22 100 100 NNW 7 11 29.83 1010 7 11 0.19 4.83
5:15 am 05:15 Clear with Light Rain 72 22 72 22 100 100 NW 10 17 29.83 1010 7 11 0.01 0.25
5:35 am 05:35 Partly Cloudy with Light Rain 72 22 72 22 100 100 NW 10 17 29.83 1010 10 16 0.01 0.25
5:55 am 05:55 Cloudy 72 22 72 22 100 100 WNW 8 13 29.83 1010 7 11 0.01 0.25
6:15 am 06:15 Mostly Cloudy 72 22 72 22 100 100 WNW 8 13 29.83 1010 7 11 0.01 0.25
6:35 am 06:35 Mostly Cloudy 72 22 72 22 100 100 WNW 8 13 29.83 1010 7 11 0.01 0.25
6:55 am 06:55 Cloudy 72 22 72 22 100 100 NW 7 11 29.83 1010 7 11 0.01 0.25
7:15 am 07:15 Cloudy with Mist and Fog 72 22 72 22 100 100 NW 9 15 29.85 1011 5 8 0.00 0.00
7:35 am 07:35 Cloudy 72 22 72 22 100 100 NW 10 17 29.85 1011 7 11 0.00 0.00
7:55 am 07:55 Cloudy 73 23 73 23 100 100 NW 9 15 29.85 1011 7 11 0.00 0.00
8:15 am 08:15 Cloudy 73 23 73 23 100 100 N 7 11 29.85 1011 10 16 0.00 0.00
8:35 am 08:35 Cloudy 73 23 73 23 100 100 N 7 11 29.85 1011 7 11 0.00 0.00
8:55 am 08:55 Cloudy 73 23 72 22 94 94 NNE 7 11 29.85 1011 10 16 0.00 0.00
9:15 am 09:15 Cloudy 73 23 72 22 94 94 N 9 15 29.85 1011 10 16 0.00 0.00
9:35 am 09:35 Cloudy with Light Rain 73 23 73 23 100 100 NNE 6 9 29.85 1011 4 6 0.00 0.00
9:55 am 09:55 Cloudy with Mist and Fog 72 22 72 22 100 100 N 10 17 29.85 1011 5 8 0.00 0.00
10:15 am 10:15 Cloudy 72 22 72 22 100 100 N 9 15 29.85 1011 7 11 0.00 0.00
10:35 am 10:35 Cloudy 73 23 72 22 94 94 N 6 9 29.85 1011 7 11 0.00 0.00
10:55 am 10:55 Cloudy 73 23 72 22 94 94 N 9 15 29.85 1011 10 16 0.00 0.00
11:15 am 11:15 Cloudy with Light Rain 73 23 73 23 100 100 NNE 7 11 29.83 1010 10 16 0.00 0.00
12:35 pm 12:35 Cloudy 73 23 73 23 100 100 N 8 13 29.83 1010 10 16 0.00 0.00
12:55 pm 12:55 Cloudy with Light Rain 73 23 73 23 100 100 NNW 9 15 29.83 1010 10 16 0.00 0.00
1:15 pm 13:15 Cloudy with Light Rain 73 23 73 23 100 100 NNE 6 9 29.83 1010 7 11 0.00 0.00
1:35 pm 13:35 Cloudy with Light Rain 73 23 73 23 100 100 N 7 11 29.80 1009 7 11 0.00 0.00
1:55 pm 13:55 Cloudy with Drizzle 73 23 72 22 94 94 N 7 11 29.80 1009 10 16 0.00 0.00
2:15 pm 14:15 Cloudy 73 23 73 23 100 100 NW 10 17 29.80 1009 10 16 0.00 0.00
2:35 pm 14:35 Cloudy 73 23 73 23 100 100 NNW 8 13 29.80 1009 10 16 0.00 0.00
2:55 pm 14:55 Cloudy with Light Rain 73 23 72 22 94 94 N 9 15 29.80 1009 10 16 0.00 0.00
3:15 pm 15:15 Cloudy 75 24 72 22 89 89 NNE 7 11 29.80 1009 10 16 0.00 0.00
3:35 pm 15:35 Cloudy 75 24 72 22 89 89 NNE 7 11 29.77 1008 10 16 0.00 0.00
3:55 pm 15:55 Cloudy 75 24 72 22 89 89 NNE 8 13 29.77 1008 10 16 0.00 0.00
4:15 pm 16:15 Cloudy 75 24 72 22 89 89 NNE 9 15 29.77 1008 10 16 0.00 0.00
4:35 pm 16:35 Cloudy 73 23 70 21 89 89 NNE 8 13 29.77 1008 10 16 0.00 0.00
4:55 pm 16:55 Cloudy 73 23 70 21 89 89 NNE 7 11 29.77 1008 10 16 0.00 0.00
5:15 pm 17:15 Cloudy 72 22 68 20 88 88 NNE 9 15 29.77 1008 10 16 0.00 0.00
5:35 pm 17:35 Cloudy 72 22 68 20 88 88 NNE 9 15 29.77 1008 10 16 0.00 0.00
5:55 pm 17:55 Cloudy 72 22 68 20 88 88 N 9 15 29.77 1008 10 16 0.00 0.00
6:15 pm 18:15 Cloudy 72 22 68 20 88 88 N 6 9 29.80 1009 10 16 0.00 0.00
6:35 pm 18:35 Cloudy 72 22 68 20 88 88 NNW 12 19 29.77 1008 10 16 0.00 0.00
6:55 pm 18:55 Cloudy 70 21 68 20 94 94 NNW 12 19 29.77 1008 10 16 0.00 0.00
7:15 pm 19:15 Cloudy 70 21 68 20 94 94 N 9 15 29.77 1008 10 16 0.00 0.00
7:35 pm 19:35 Cloudy 70 21 68 20 94 94 NNW 12 19 29.77 1008 10 16 0.00 0.00
7:55 pm 19:55 Cloudy 70 21 68 20 94 94 NNW 9 15 29.80 1009 10 16 0.00 0.00
8:15 pm 20:15 Cloudy 70 21 66 19 88 88 NNW 9 15 29.80 1009 10 16 0.00 0.00
8:35 pm 20:35 Cloudy 70 21 66 19 88 88 NNW 10 17 29.80 1009 10 16 0.00 0.00
8:55 pm 20:55 Cloudy 70 21 66 19 88 88 NNW 10 17 29.80 1009 10 16 0.00 0.00
9:15 pm 21:15 Cloudy with Light Rain 70 21 66 19 88 88 NNW 10 17 29.80 1009 10 16 0.00 0.00
9:35 pm 21:35 Cloudy with Drizzle 70 21 68 20 94 94 NNW 9 15 29.80 1009 10 16 0.00 0.00
9:55 pm 21:55 Cloudy with Light Rain 68 20 68 20 100 100 NNW 5 7 29.83 1010 10 16 0.00 0.00
10:15 pm 22:15 Cloudy 68 20 66 19 94 94 NNW 7 11 29.83 1010 10 16 0.00 0.00
10:35 pm 22:35 Partly Cloudy 68 20 68 20 100 100 NNW 7 11 29.80 1009 10 16 0.00 0.00
10:55 pm 22:55 Mostly Cloudy 68 20 66 19 94 94 NNW 8 13 29.83 1010 10 16 0.00 0.00
11:15 pm 23:15 Cloudy 68 20 66 19 94 94 NW 10 17 29.83 1010 10 16 0.00 0.00
11:35 pm 23:35 Cloudy 70 21 66 19 88 88 NNW 9 15 29.83 1010 10 16 0.00 0.00
11:55 pm 23:55 Cloudy 70 21 66 19 88 88 NNW 8 13 29.80 1009 10 16 0.00 0.00

Powered by AerisWeather